| time (UTC) | temp F | wind direction | speed MPH | gust MPH | rain 1hr in | rain 24hr in | rain mn in | humidity % | barometer mb |
| 20260508025719 | 40 | 228 | 0.0 | 0.0 | 0.00 | 0.00 | 0.00 | 96 | 1017.9 |
| 20260508025114 | 40 | 229 | 0.0 | 0.0 | 0.00 | 0.00 | 0.00 | 95 | 1017.9 |
| 20260508024525 | 40 | 229 | 0.0 | 0.0 | 0.00 | 0.00 | 0.00 | 95 | 1017.9 |
| 20260508023946 | 40 | 228 | 0.0 | 0.0 | 0.00 | 0.00 | 0.00 | 95 | 1017.9 |
| 20260508023341 | 41 | 228 | 0.0 | 0.0 | 0.00 | 0.00 | 0.00 | 95 | 1017.6 |
| 20260508022723 | 41 | 235 | 0.0 | 0.0 | 0.00 | 0.00 | 0.00 | 95 | 1017.6 |
| 20260508021515 | 42 | 229 | 0.0 | 0.0 | 0.00 | 0.00 | 0.00 | 95 | 1017.2 |
| 20260508020945 | 42 | 230 | 0.0 | 0.0 | 0.00 | 0.00 | 0.00 | 95 | 1017.2 |
| 20260508020349 | 42 | 234 | 0.0 | 0.0 | 0.00 | 0.00 | 0.00 | 95 | 1017.2 |
| 20260508015738 | 43 | 230 | 0.0 | 0.0 | 0.00 | 0.00 | 0.00 | 94 | 1017.2 |
| 20260508015145 | 43 | 227 | 0.0 | 0.0 | 0.00 | 0.00 | 0.00 | 93 | 1017.2 |
| 20260508014517 | 44 | 227 | 0.0 | 0.0 | 0.00 | 0.00 | 0.00 | 93 | 1016.9 |
| 20260508012725 | 45 | 228 | 0.0 | 0.0 | 0.00 | 0.00 | 0.00 | 91 | 1016.9 |
| 20260508011528 | 46 | 227 | 0.0 | 0.0 | 0.00 | 0.00 | 0.00 | 91 | 1016.5 |
| 20260508010935 | 47 | 222 | 0.0 | 0.0 | 0.00 | 0.00 | 0.00 | 90 | 1016.5 |
| 20260508010349 | 48 | 229 | 0.0 | 0.0 | 0.00 | 0.00 | 0.00 | 89 | 1016.5 |
| 20260508005736 | 48 | 224 | 0.0 | 0.0 | 0.00 | 0.00 | 0.00 | 88 | 1016.5 |
| 20260508003908 | 50 | 228 | 0.0 | 0.0 | 0.00 | 0.00 | 0.00 | 85 | 1016.2 |
| 20260508003340 | 51 | 226 | 0.0 | 0.0 | 0.00 | 0.00 | 0.00 | 85 | 1016.2 |
| 20260508002734 | 52 | 206 | 0.0 | 0.0 | 0.00 | 0.00 | 0.00 | 85 | 1016.2 |
| 20260508002110 | 52 | 223 | 0.0 | 0.0 | 0.00 | 0.00 | 0.00 | 83 | 1016.2 |
| 20260508001532 | 53 | 220 | 0.0 | 0.0 | 0.00 | 0.00 | 0.00 | 81 | 1015.9 |
| 20260508000949 | 54 | 241 | 0.0 | 0.0 | 0.00 | 0.00 | 0.00 | 78 | 1015.9 |
| 20260508000335 | 55 | 261 | 0.0 | 0.0 | 0.00 | 0.00 | 0.00 | 76 | 1015.5 |
| 20260507235747 | 56 | 257 | 0.0 | 0.0 | 0.00 | 0.00 | 0.00 | 73 | 1015.5 |
| 20260507235119 | 57 | 244 | 0.0 | 0.0 | 0.00 | 0.00 | 0.00 | 73 | 1015.9 |
| 20260507234551 | 58 | 288 | 0.0 | 0.0 | 0.00 | 0.00 | 0.00 | 71 | 1015.5 |
| 20260507233938 | 60 | 199 | 0.0 | 0.0 | 0.00 | 0.00 | 0.00 | 68 | 1015.2 |
| 20260507233347 | 61 | 254 | 0.0 | 0.0 | 0.00 | 0.00 | 0.00 | 65 | 1015.2 |
| 20260507231535 | 63 | 240 | 2.0 | 2.0 | 0.00 | 0.00 | 0.00 | 55 | 1015.2 |
| 20260507225744 | 64 | 198 | 6.0 | 10.0 | 0.00 | 0.00 | 0.00 | 46 | 1015.2 |
| 20260507225120 | 64 | 253 | 4.0 | 7.0 | 0.00 | 0.00 | 0.00 | 50 | 1015.2 |
| 20260507224527 | 64 | 252 | 4.0 | 5.0 | 0.00 | 0.00 | 0.00 | 51 | 1015.2 |
| 20260507223918 | 64 | 249 | 5.0 | 7.0 | 0.00 | 0.00 | 0.00 | 51 | 1015.2 |
| 20260507223338 | 64 | 258 | 5.0 | 7.0 | 0.00 | 0.00 | 0.00 | 48 | 1015.2 |
| 20260507222719 | 64 | 251 | 3.0 | 5.0 | 0.00 | 0.00 | 0.00 | 47 | 1014.9 |
| 20260507221516 | 64 | 222 | 4.0 | 10.0 | 0.00 | 0.00 | 0.00 | 50 | 1015.2 |
| 20260507220312 | 63 | 203 | 3.0 | 5.0 | 0.00 | 0.00 | 0.00 | 48 | 1014.9 |
| 20260507215738 | 63 | 251 | 4.0 | 5.0 | 0.00 | 0.00 | 0.00 | 50 | 1014.9 |
| 20260507215144 | 64 | 243 | 0.0 | 0.0 | 0.00 | 0.00 | 0.00 | 56 | 1014.5 |
| 20260507213944 | 65 | 251 | 0.0 | 0.0 | 0.00 | 0.00 | 0.00 | 47 | 1014.5 |
| 20260507212737 | 66 | 278 | 1.0 | 5.0 | 0.00 | 0.00 | 0.00 | 44 | 1014.5 |
| 20260507211532 | 65 | 250 | 3.0 | 5.0 | 0.00 | 0.00 | 0.00 | 46 | 1014.2 |
| 20260507210928 | 64 | 252 | 5.0 | 7.0 | 0.00 | 0.00 | 0.00 | 46 | 1014.2 |
| 20260507210344 | 64 | 250 | 4.0 | 5.0 | 0.00 | 0.00 | 0.00 | 47 | 1014.2 |
| 20260507204547 | 64 | 280 | 3.0 | 5.0 | 0.00 | 0.00 | 0.00 | 53 | 1014.5 |
| 20260507202737 | 65 | 285 | 5.0 | 7.0 | 0.00 | 0.00 | 0.00 | 48 | 1014.5 |
| 20260507202152 | 65 | 137 | 0.0 | 2.0 | 0.00 | 0.00 | 0.00 | 47 | 1014.5 |
| 20260507201538 | 65 | 184 | 2.0 | 5.0 | 0.00 | 0.00 | 0.00 | 48 | 1014.2 |
| 20260507200938 | 66 | 294 | 5.0 | 7.0 | 0.00 | 0.00 | 0.00 | 49 | 1014.5 |
| 20260507195752 | 65 | 200 | 7.0 | 12.0 | 0.00 | 0.00 | 0.00 | 48 | 1014.5 |
| 20260507195151 | 65 | 210 | 1.0 | 5.0 | 0.00 | 0.00 | 0.00 | 47 | 1014.5 |
| 20260507194514 | 65 | 220 | 4.0 | 5.0 | 0.00 | 0.00 | 0.00 | 44 | 1014.5 |
| 20260507193951 | 65 | 245 | 2.0 | 5.0 | 0.00 | 0.00 | 0.00 | 49 | 1014.5 |
| 20260507192732 | 65 | 262 | 3.0 | 5.0 | 0.00 | 0.00 | 0.00 | 50 | 1014.9 |
| 20260507192146 | 65 | 263 | 1.0 | 2.0 | 0.00 | 0.00 | 0.00 | 46 | 1014.9 |
| 20260507191535 | 65 | 217 | 3.0 | 5.0 | 0.00 | 0.00 | 0.00 | 46 | 1014.9 |
| 20260507190936 | 65 | 215 | 2.0 | 2.0 | 0.00 | 0.00 | 0.00 | 51 | 1015.2 |
| 20260507185724 | 64 | 240 | 1.0 | 2.0 | 0.00 | 0.00 | 0.00 | 51 | 1015.2 |
| 20260507185150 | 64 | 273 | 0.0 | 2.0 | 0.00 | 0.00 | 0.00 | 47 | 1014.9 |
| 20260507184549 | 63 | 26 | 7.0 | 10.0 | 0.00 | 0.00 | 0.00 | 53 | 1015.2 |
| 20260507183952 | 63 | 212 | 2.0 | 5.0 | 0.00 | 0.00 | 0.00 | 53 | 1015.2 |
| 20260507183308 | 63 | 251 | 0.0 | 2.0 | 0.00 | 0.00 | 0.00 | 55 | 1015.5 |
| 20260507182714 | 64 | 357 | 6.0 | 7.0 | 0.00 | 0.00 | 0.00 | 56 | 1015.2 |
| 20260507182150 | 64 | 207 | 0.0 | 2.0 | 0.00 | 0.00 | 0.00 | 57 | 1015.2 |
| 20260507181510 | 64 | 233 | 0.0 | 5.0 | 0.00 | 0.00 | 0.00 | 58 | 1015.2 |
| 20260507180928 | 65 | 263 | 3.0 | 5.0 | 0.00 | 0.00 | 0.00 | 53 | 1015.2 |
| 20260507180324 | 64 | 348 | 4.0 | 5.0 | 0.00 | 0.00 | 0.00 | 56 | 1015.2 |
| 20260507174520 | 64 | 243 | 6.0 | 7.0 | 0.00 | 0.00 | 0.00 | 55 | 1015.5 |
| 20260507173945 | 63 | 295 | 1.0 | 5.0 | 0.00 | 0.00 | 0.00 | 54 | 1015.5 |
| 20260507172732 | 62 | 285 | 2.0 | 5.0 | 0.00 | 0.00 | 0.00 | 58 | 1015.5 |
| 20260507172129 | 61 | 233 | 4.0 | 7.0 | 0.00 | 0.00 | 0.00 | 62 | 1015.5 |
| 20260507170911 | 60 | 286 | 0.0 | 0.0 | 0.00 | 0.00 | 0.00 | 56 | 1015.9 |
| 20260507170321 | 60 | 264 | 0.0 | 0.0 | 0.00 | 0.00 | 0.00 | 63 | 1015.9 |
| 20260507165750 | 60 | 235 | 0.0 | 0.0 | 0.00 | 0.00 | 0.00 | 71 | 1016.2 |
| 20260507165135 | 60 | 218 | 0.0 | 0.0 | 0.00 | 0.00 | 0.00 | 64 | 1015.9 |
| 20260507163923 | 61 | 245 | 0.0 | 0.0 | 0.00 | 0.00 | 0.00 | 65 | 1016.2 |
| 20260507162722 | 61 | 273 | 0.0 | 2.0 | 0.00 | 0.00 | 0.00 | 64 | 1016.2 |
| 20260507162152 | 61 | 237 | 0.0 | 0.0 | 0.00 | 0.00 | 0.00 | 61 | 1015.9 |
| 20260507161555 | 60 | 217 | 0.0 | 0.0 | 0.00 | 0.00 | 0.00 | 61 | 1016.2 |
| 20260507160923 | 60 | 276 | 0.0 | 0.0 | 0.00 | 0.00 | 0.00 | 65 | 1016.2 |
| 20260507160346 | 60 | 296 | 1.0 | 5.0 | 0.00 | 0.00 | 0.00 | 63 | 1016.2 |
| 20260507155731 | 60 | 261 | 0.0 | 0.0 | 0.00 | 0.00 | 0.00 | 64 | 1016.2 |
| 20260507155123 | 60 | 287 | 0.0 | 0.0 | 0.00 | 0.00 | 0.00 | 62 | 1016.5 |
| 20260507154519 | 60 | 192 | 0.0 | 0.0 | 0.00 | 0.00 | 0.00 | 68 | 1016.5 |
| 20260507153911 | 61 | 211 | 0.0 | 0.0 | 0.00 | 0.00 | 0.00 | 62 | 1016.2 |
| 20260507153316 | 61 | 240 | 3.0 | 5.0 | 0.00 | 0.00 | 0.00 | 61 | 1016.2 |
| 20260507152750 | 60 | 162 | 3.0 | 5.0 | 0.00 | 0.00 | 0.00 | 60 | 1016.2 |
| 20260507151534 | 59 | 240 | 0.0 | 0.0 | 0.00 | 0.00 | 0.00 | 61 | 1016.2 |
| 20260507150347 | 58 | 242 | 0.0 | 0.0 | 0.00 | 0.00 | 0.00 | 64 | 1016.5 |
| 20260507145715 | 58 | 275 | 0.0 | 2.0 | 0.00 | 0.00 | 0.00 | 67 | 1016.9 |
| 20260507145111 | 59 | 230 | 1.0 | 2.0 | 0.00 | 0.00 | 0.00 | 72 | 1016.9 |
| 20260507144515 | 59 | 274 | 2.0 | 5.0 | 0.00 | 0.00 | 0.00 | 68 | 1016.5 |
| 20260507143939 | 58 | 189 | 0.0 | 0.0 | 0.00 | 0.00 | 0.00 | 63 | 1016.5 |
| 20260507143320 | 58 | 170 | 0.0 | 0.0 | 0.00 | 0.00 | 0.00 | 69 | 1016.5 |
| 20260507142123 | 57 | 218 | 0.0 | 0.0 | 0.00 | 0.00 | 0.00 | 72 | 1016.2 |
| 20260507141518 | 56 | 223 | 0.0 | 0.0 | 0.00 | 0.00 | 0.00 | 75 | 1016.5 |
| 20260507140926 | 56 | 202 | 0.0 | 0.0 | 0.00 | 0.00 | 0.00 | 76 | 1016.9 |
| 20260507140342 | 55 | 215 | 0.0 | 0.0 | 0.00 | 0.00 | 0.00 | 78 | 1016.9 |
| 20260507135143 | 55 | 262 | 0.0 | 0.0 | 0.00 | 0.00 | 0.00 | 79 | 1016.9 |
| 20260507134519 | 54 | 187 | 0.0 | 0.0 | 0.00 | 0.00 | 0.00 | 84 | 1017.2 |
| 20260507133319 | 54 | 264 | 0.0 | 0.0 | 0.00 | 0.00 | 0.00 | 86 | 1017.2 |
| 20260507132743 | 54 | 238 | 0.0 | 0.0 | 0.00 | 0.00 | 0.00 | 88 | 1016.9 |
| 20260507132122 | 54 | 265 | 0.0 | 0.0 | 0.00 | 0.00 | 0.00 | 89 | 1017.2 |
| 20260507130911 | 53 | 222 | 0.0 | 0.0 | 0.00 | 0.00 | 0.00 | 92 | 1017.2 |
| 20260507130312 | 52 | 235 | 0.0 | 0.0 | 0.00 | 0.00 | 0.00 | 95 | 1016.9 |
| 20260507124550 | 51 | 232 | 0.0 | 0.0 | 0.00 | 0.00 | 0.00 | 96 | 1017.2 |
| 20260507123943 | 51 | 255 | 0.0 | 0.0 | 0.00 | 0.00 | 0.00 | 97 | 1016.9 |
| 20260507123343 | 51 | 220 | 0.0 | 0.0 | 0.00 | 0.00 | 0.00 | 97 | 1017.2 |
| 20260507122748 | 50 | 236 | 0.0 | 0.0 | 0.00 | 0.00 | 0.00 | 97 | 1017.2 |
| 20260507122127 | 50 | 228 | 0.0 | 0.0 | 0.00 | 0.00 | 0.00 | 98 | 1016.9 |
| 20260507120340 | 50 | 233 | 0.0 | 0.0 | 0.00 | 0.00 | 0.00 | 98 | 1016.9 |
| 20260507115712 | 50 | 243 | 0.0 | 0.0 | 0.00 | 0.00 | 0.00 | 98 | 1016.9 |
| 20260507115146 | 49 | 230 | 0.0 | 0.0 | 0.00 | 0.00 | 0.00 | 98 | 1016.9 |
| 20260507114527 | 49 | 232 | 0.0 | 0.0 | 0.00 | 0.00 | 0.00 | 98 | 1017.2 |
| 20260507113916 | 49 | 230 | 0.0 | 0.0 | 0.00 | 0.00 | 0.00 | 98 | 1017.2 |
| 20260507113326 | 49 | 236 | 0.0 | 0.0 | 0.00 | 0.00 | 0.00 | 98 | 1017.2 |
| 20260507112752 | 49 | 237 | 0.0 | 0.0 | 0.00 | 0.00 | 0.00 | 98 | 1017.2 |
| 20260507111513 | 48 | 235 | 0.0 | 0.0 | 0.00 | 0.00 | 0.00 | 98 | 1017.2 |
| 20260507110940 | 48 | 241 | 0.0 | 0.0 | 0.00 | 0.00 | 0.00 | 98 | 1016.9 |
| 20260507110320 | 48 | 231 | 0.0 | 0.0 | 0.00 | 0.00 | 0.00 | 98 | 1016.5 |
| 20260507105718 | 48 | 231 | 0.0 | 0.0 | 0.00 | 0.00 | 0.00 | 98 | 1016.5 |
| 20260507105143 | 48 | 230 | 0.0 | 0.0 | 0.00 | 0.00 | 0.00 | 98 | 1016.2 |
| 20260507104546 | 48 | 230 | 0.0 | 0.0 | 0.00 | 0.00 | 0.00 | 98 | 1016.5 |
| 20260507103320 | 48 | 229 | 0.0 | 0.0 | 0.00 | 0.00 | 0.00 | 98 | 1016.5 |
| 20260507102729 | 48 | 236 | 0.0 | 0.0 | 0.00 | 0.00 | 0.00 | 98 | 1016.2 |
| 20260507101525 | 48 | 232 | 0.0 | 0.0 | 0.00 | 0.00 | 0.00 | 98 | 1016.2 |
| 20260507100912 | 48 | 231 | 0.0 | 0.0 | 0.00 | 0.00 | 0.00 | 98 | 1015.9 |
| 20260507100332 | 48 | 228 | 0.0 | 0.0 | 0.00 | 0.00 | 0.00 | 98 | 1016.2 |
| 20260507095740 | 48 | 227 | 0.0 | 0.0 | 0.00 | 0.00 | 0.00 | 98 | 1016.2 |
| 20260507095110 | 48 | 231 | 0.0 | 0.0 | 0.00 | 0.00 | 0.00 | 98 | 1016.2 |
| 20260507093930 | 49 | 234 | 0.0 | 0.0 | 0.00 | 0.00 | 0.00 | 98 | 1016.5 |
| 20260507093344 | 49 | 238 | 0.0 | 0.0 | 0.00 | 0.00 | 0.00 | 98 | 1016.5 |
| 20260507092744 | 49 | 237 | 0.0 | 0.0 | 0.00 | 0.00 | 0.00 | 98 | 1016.2 |
| 20260507092130 | 49 | 238 | 0.0 | 0.0 | 0.00 | 0.00 | 0.00 | 98 | 1016.2 |
| 20260507091510 | 49 | 230 | 0.0 | 0.0 | 0.00 | 0.00 | 0.00 | 98 | 1016.2 |
| 20260507090940 | 49 | 230 | 0.0 | 0.0 | 0.00 | 0.00 | 0.00 | 98 | 1016.2 |
| 20260507090318 | 49 | 236 | 0.0 | 0.0 | 0.00 | 0.00 | 0.00 | 98 | 1016.2 |
| 20260507085715 | 49 | 231 | 0.0 | 0.0 | 0.00 | 0.00 | 0.00 | 98 | 1016.2 |
| 20260507085109 | 49 | 230 | 0.0 | 0.0 | 0.00 | 0.00 | 0.00 | 98 | 1016.2 |
| 20260507084541 | 49 | 229 | 0.0 | 0.0 | 0.00 | 0.00 | 0.00 | 98 | 1016.2 |
| 20260507083925 | 49 | 227 | 0.0 | 0.0 | 0.00 | 0.00 | 0.00 | 98 | 1015.9 |
| 20260507083327 | 49 | 235 | 0.0 | 0.0 | 0.00 | 0.00 | 0.00 | 98 | 1016.2 |
| 20260507082121 | 50 | 244 | 0.0 | 0.0 | 0.00 | 0.00 | 0.00 | 98 | 1016.2 |
| 20260507081530 | 50 | 248 | 0.0 | 0.0 | 0.00 | 0.00 | 0.00 | 98 | 1016.2 |
| 20260507080917 | 50 | 241 | 0.0 | 0.0 | 0.00 | 0.00 | 0.00 | 98 | 1015.9 |
| 20260507080337 | 50 | 240 | 0.0 | 0.0 | 0.00 | 0.00 | 0.00 | 98 | 1016.2 |
| 20260507075716 | 50 | 237 | 0.0 | 0.0 | 0.00 | 0.00 | 0.00 | 98 | 1016.5 |
| 20260507075136 | 50 | 232 | 0.0 | 0.0 | 0.00 | 0.00 | 0.00 | 98 | 1016.5 |
| 20260507074541 | 50 | 235 | 0.0 | 0.0 | 0.00 | 0.00 | 0.00 | 98 | 1016.2 |
| 20260507073952 | 50 | 230 | 0.0 | 0.0 | 0.00 | 0.00 | 0.00 | 98 | 1016.2 |
| 20260507073328 | 50 | 235 | 0.0 | 0.0 | 0.00 | 0.00 | 0.00 | 98 | 1016.2 |
| 20260507072748 | 50 | 242 | 0.0 | 0.0 | 0.00 | 0.00 | 0.00 | 98 | 1015.9 |
| 20260507072116 | 50 | 234 | 0.0 | 0.0 | 0.00 | 0.00 | 0.00 | 98 | 1015.9 |
| 20260507071537 | 50 | 230 | 0.0 | 0.0 | 0.00 | 0.00 | 0.00 | 98 | 1016.2 |
| 20260507070310 | 50 | 239 | 0.0 | 0.0 | 0.00 | 0.00 | 0.00 | 98 | 1016.2 |
| 20260507065753 | 50 | 245 | 0.0 | 0.0 | 0.00 | 0.00 | 0.00 | 98 | 1016.2 |
| 20260507064514 | 50 | 230 | 0.0 | 0.0 | 0.00 | 0.00 | 0.00 | 98 | 1016.2 |
| 20260507063913 | 51 | 248 | 0.0 | 0.0 | 0.00 | 0.00 | 0.00 | 98 | 1016.5 |
| 20260507063347 | 51 | 230 | 0.0 | 0.0 | 0.00 | 0.00 | 0.00 | 98 | 1016.2 |
| 20260507062716 | 51 | 219 | 0.0 | 0.0 | 0.00 | 0.00 | 0.00 | 98 | 1016.2 |
| 20260507062130 | 51 | 227 | 0.0 | 0.0 | 0.00 | 0.00 | 0.00 | 98 | 1016.2 |
| 20260507061517 | 51 | 218 | 0.0 | 0.0 | 0.00 | 0.00 | 0.00 | 98 | 1016.5 |
| 20260507060928 | 51 | 226 | 0.0 | 0.0 | 0.00 | 0.00 | 0.00 | 98 | 1016.2 |
| 20260507060317 | 51 | 199 | 0.0 | 0.0 | 0.00 | 0.00 | 0.00 | 98 | 1016.5 |
| 20260507055734 | 51 | 230 | 0.0 | 0.0 | 0.00 | 0.00 | 0.00 | 98 | 1016.5 |
| 20260507055110 | 51 | 230 | 0.0 | 0.0 | 0.00 | 0.00 | 0.00 | 98 | 1016.5 |
| 20260507053926 | 51 | 231 | 0.0 | 0.0 | 0.00 | 0.00 | 0.00 | 98 | 1016.9 |
| 20260507052712 | 52 | 219 | 0.0 | 0.0 | 0.00 | 0.00 | 0.00 | 98 | 1016.5 |
| 20260507052148 | 52 | 228 | 0.0 | 0.0 | 0.00 | 0.00 | 0.00 | 98 | 1016.9 |
| 20260507051524 | 53 | 218 | 0.0 | 0.0 | 0.00 | 0.00 | 0.00 | 98 | 1016.5 |
| 20260507050911 | 53 | 232 | 0.0 | 0.0 | 0.00 | 0.00 | 0.00 | 98 | 1016.5 |
| 20260507050342 | 53 | 234 | 0.0 | 0.0 | 0.00 | 0.00 | 0.00 | 98 | 1016.9 |
| 20260507045750 | 54 | 229 | 0.0 | 0.0 | 0.00 | 0.00 | 0.00 | 98 | 1016.5 |
| 20260507045142 | 54 | 232 | 0.0 | 0.0 | 0.00 | 0.00 | 0.00 | 98 | 1016.5 |
| 20260507044539 | 54 | 234 | 0.0 | 0.0 | 0.00 | 0.00 | 0.00 | 98 | 1016.5 |
| 20260507043954 | 54 | 214 | 0.0 | 0.0 | 0.00 | 0.00 | 0.00 | 98 | 1016.5 |
| 20260507041541 | 55 | 232 | 0.0 | 0.0 | 0.00 | 0.00 | 0.00 | 98 | 1016.5 |
| 20260507040932 | 55 | 229 | 0.0 | 0.0 | 0.00 | 0.00 | 0.00 | 98 | 1016.2 |
| 20260507040332 | 55 | 237 | 0.0 | 0.0 | 0.00 | 0.00 | 0.00 | 98 | 1016.2 |
| 20260507035713 | 55 | 236 | 0.0 | 0.0 | 0.00 | 0.00 | 0.64 | 98 | 1016.5 |
| 20260507035145 | 55 | 231 | 0.0 | 0.0 | 0.00 | 0.00 | 0.64 | 98 | 1016.2 |
| 20260507034518 | 55 | 238 | 0.0 | 0.0 | 0.00 | 0.00 | 0.64 | 98 | 1015.9 |
| 20260507033911 | 55 | 230 | 0.0 | 0.0 | 0.00 | 0.00 | 0.64 | 98 | 1016.2 |
| 20260507033343 | 55 | 232 | 0.0 | 0.0 | 0.00 | 0.00 | 0.64 | 98 | 1016.2 |
| 20260507032121 | 55 | 230 | 0.0 | 0.0 | 0.00 | 0.00 | 0.64 | 98 | 1016.2 |
| 20260507030950 | 55 | 231 | 0.0 | 0.0 | 0.00 | 0.00 | 0.64 | 98 | 1016.2 |
| 20260507030351 | 55 | 240 | 0.0 | 0.0 | 0.00 | 0.00 | 0.64 | 98 | 1016.2 |